Regional Weather Roundup
Issued by NWS Charleston, SC

Current Version | Previous Version | Graphics & Text | Print | Product List | Glossary On
Versions: 1 2 3 4 5 6 7 8 9 10 11 12 13 14 15 16 17 18 19 20 21 22 23 24 25 26 27 28 29 30 31 32 33 34 35 36 37 38 39 40 41 42 43 44 45 46 47 48 49 50
000
ASUS42 KCHS 180910
RWRCHS
REGIONAL WEATHER ROUNDUP
NATIONAL WEATHER SERVICE CHARLESTON SC
500 AM EDT THU SEP 18 2014

NOTE: "FAIR" INDICATES FEW OR NO CLOUDS BELOW 12,000 FEET WITH NO
SIGNIFICANT WEATHER AND/OR OBSTRUCTIONS TO VISIBILITY.

NOT ALL STATIONS ARE QUALITY CONTROLLED BY THE NATIONAL
WEATHER SERVICE. USE DATA WITH CAUTION...ESPECIALLY
DEWPOINT OBSERVATIONS.

SCZ027-030-031-034>040-042>050-181000-
...SOUTH CAROLINA...

CITY           SKY/WX    TMP DP  RH WIND       PRES   REMARKS
N CHARLESTON   PTCLDY    70  67  90 CALM      29.90R
WATERFRONT PRK   N/A     75 N/A N/A SE5         N/A
FORT JOHNSON   NOT AVBL
MOUNT PLEASANT FAIR      70  70 100 CALM      29.89S FOG
JOHNS ISLAND   SUNNY     72  72 100 CALM      29.90R
PINOPOLIS        N/A     75  70  83 NE2       29.82R
MONCKS CORNER    N/A     68  68 100 CALM      29.89S FOG
SUMMERVILLE    FAIR      66  66 100 CALM      29.90S
BEAUFORT MCAS  CLEAR     70  68  93 CALM      29.89S
BEAUFORT ARPT  FAIR      72  72 100 CALM      29.88S FOG
HILTON HEAD IS CLEAR     70  70 100 CALM      29.89S
GEORGETOWN     NOT AVBL
WALTERBORO     SUNNY     68 N/A N/A CALM      29.90S
ORANGEBURG     PTCLDY    68  65  90 CALM      29.90F
BARNWELL       FAIR      66  66 100 CALM      29.91S
AIKEN          DRZL/FOG  64  64 100 CALM      29.95S VSB 1/4
MANNING        FAIR      66 N/A N/A CALM      29.90S
KINGSTREE      NOT AVBL
COLUMBIA       CLEAR     66  63  90 CALM      29.91R
SUMTER         MOCLDY    66  63  88 N2        29.90R
FLORENCE       CLOUDY    71  68  90 E5        29.91R
MYRTLE BEACH   CLEAR     70  66  88 N7        29.89S
N MYRTLE BEACH PTCLDY    69  66  90 CALM      29.89R

$$

GAZ063-065-086>088-099>101-113>116-118-119-134-136>141-150-181000-
...GEORGIA...

CITY           SKY/WX    TMP DP  RH WIND       PRES   REMARKS
SAVANNAH ARPT  CLEAR     70  68  93 W3        29.89F
HUNTER AAF     CLEAR     70  70 100 W2        29.87S
FORT STEWART   MOCLDY    70  70 100 CALM      29.88S FOG
STATESBORO     NOT AVBL
SYLVANIA       FOG       70  69  98 CALM      29.90S VSB 3/4
CLAXTON        FAIR     N/A N/A N/A CALM      29.89S
THOMSON        CLOUDY    70  70 100 CALM      29.96R
AUGUSTA-BUSH   PTCLDY    66  66 100 CALM      29.90R FOG
AUGUSTA-DANIEL PTCLDY    69  67  93 NE5       29.92R
SWAINSBORO     FOG       70  70 100 CALM      29.90S VSB 3/4
VIDALIA        PTCLDY    70  68  94 CALM      29.88S FOG
ALMA           CLEAR     68  67  96 CALM      29.88S
WAYCROSS       CLEAR     72  72 100 CALM      29.88R
JESUP          PTSUNNY   70  68  94 CALM      29.90R
BRUNSWICK      CLEAR     72  68  88 CALM      29.89S
SAINT SIMONS   CLEAR     74  72  93 NW3       29.88S

$$

SCZ027-028-034-036>038-045-046-048>050-GAZ119-141-181000-
...LAKE AND SUPPLEMENTAL COASTAL OBSERVATIONS...

STATION/POSITION TIME  TEMP    WIND        PRES    WAVE   SWELL
                       AIR SEA DIR/SP/G            HT/PER HT/PER/DIR
                 (UTC) (F)     (DEG/KT/KT) (MB)    (FT/S) (FT/S/D)
UPR LAKE MARION  NOT AVBL
WINYAH BAY       0800   70     340/  4     1012.0S
LAKE MURRAY      0800   67     350/  1/  3 1012.5R
ACE BASIN NERRS  0800   69        CALM     1012.0S
FORT PULASKI     0900   76     140/  5/  6 1012.0S
SAPELO ISLAND    0800   71      70/  2     1012.0S

$$

ANZ835-935-AMZ111-154-330-350-352-354-374-450-454-472-181000-
...C-MAN AND BUOY OBSERVATIONS...

STATION/POSITION TIME  TEMP    WIND        PRES    WAVE   SWELL
                       AIR SEA DIR/SP/G            HT/PER HT/PER/DIR
                 (UTC) (F)     (DEG/KT/KT) (MB)    (FT/S) (FT/S/D)
FOLLY BEACH CMAN 0800   75     360/  5/  7 1012.4F
BUOY 41004       0900   80 83  350/  6/  8 1011.3F   4/12   3/12
BUOY 41008       0900   79 84   70/  4/  8 1011.9F   3/12   3/100/12
5E ST. MARYS GA  0900      84                N/A     2/13   2/110/13
FRYING PAN BUOY  NOT AVBL
BUOY 41025       0900   74      20/ 16/ 19 1011.7F   6/14   5/ 90/14
CAPE LOOKOUT NC  0800   75      40/ 16/ 18 1011.9F
BUOY 41002       0834   78 82  350/  8/ 10 1011.2R   4/11   5/100/11
BUOY 41010       0900   80 85   10/  8/ 10 1011.4R   4/12   5/ 60/12
BUOY 41012       NOT AVBL
ST AUGUSTINE FL  0900   74     240/  3/  4 1012.4R
CAPERS NEARSHORE 0800   76     360/  8/ 10   N/A
FRIPP NEARSHORE  NOT AVBL


$$


USA.gov is the U.S. government's official web portal to all federal, state and local government web resources and services.